DW2485 Weather Reports


time (UTC)temp
C
wind
direction
speed
KPH
gust
KPH
rain 1hr
cm
rain 24hr
cm
rain mn
cm
humidity
%
barometer
mb
20260831194005 31 186 9.7 12.9 0.00 0.48 0.00 65 1013.9
20260831192505 32 203 8.0 12.9 0.00 0.58 0.00 65 1014.1
20260831191005 31 211 6.4 11.3 0.00 0.61 0.00 67 1014.2
20260831190005 32 181 8.0 12.9 0.00 0.61 0.00 65 1014.1
20260831185505 31 208 8.0 12.9 0.00 0.61 0.00 66 1014.1
20260831184504 31 235 3.2 9.7 0.00 0.61 0.00 65 1014.0
20260831183505 31 235 4.8 9.7 0.00 0.61 0.00 67 1013.9
20260831182005 30 189 6.4 9.7 0.00 0.61 0.00 68 1014.2
20260831181005 31 215 3.2 9.7 0.00 0.61 0.00 66 1014.2
20260831180005 31 190 6.4 9.7 0.00 0.64 0.00 64 1014.0
20260831175504 32 230 4.8 12.9 0.00 0.64 0.00 65 1014.0
20260831175005 31 283 11.3 16.1 0.00 0.64 0.00 63 1014.4
20260831173505 31 248 11.3 19.3 0.00 0.66 0.00 64 1014.6
20260831173005 31 264 12.9 19.3 0.00 0.69 0.00 65 1014.3
20260831172004 30 252 9.7 19.3 0.00 0.71 0.00 65 1014.5
20260831171505 30 242 11.3 19.3 0.00 0.71 0.00 66 1014.5
20260831170004 30 209 9.7 16.1 0.00 0.76 0.00 66 1014.5
20260831165005 30 217 9.7 14.5 0.00 0.81 0.00 65 1014.6
20260831164505 30 217 8.0 20.9 0.00 0.81 0.00 66 1014.7
20260831164004 30 228 12.9 19.3 0.00 0.84 0.00 67 1014.7
20260831163005 30 226 14.5 20.9 0.00 0.84 0.00 66 1014.7
20260831162504 29 236 9.7 24.1 0.00 0.84 0.00 67 1014.7
20260831161505 30 236 9.7 19.3 0.00 0.84 0.00 68 1014.8
20260831161005 28 224 11.3 20.9 0.00 0.84 0.00 66 1014.7
20260831155005 28 226 11.3 20.9 0.00 0.84 0.00 68 1014.4
20260831154504 28 242 8.0 22.5 0.00 0.84 0.00 69 1014.2
20260831153505 28 217 14.5 25.7 0.00 0.84 0.00 67 1014.2
20260831153004 28 216 12.9 27.4 0.00 0.84 0.00 68 1014.0
20260831152504 28 231 19.3 25.7 0.00 0.84 0.00 66 1014.1
20260831152004 28 213 8.0 22.5 0.00 0.84 0.00 70 1014.1
20260831150504 28 235 9.7 16.1 0.00 0.84 0.00 73 1013.9
20260831145004 27 205 9.7 19.3 0.00 0.84 0.00 72 1013.6
20260831144005 27 209 9.7 16.1 0.00 0.84 0.00 73 1013.7
20260831143504 27 206 9.7 19.3 0.00 0.84 0.00 73 1013.6
20260831141004 26 206 3.2 11.3 0.00 0.84 0.00 77 1013.5
20260831140505 26 196 6.4 12.9 0.00 0.84 0.00 76 1013.6
20260831140004 25 207 8.0 14.5 0.00 0.84 0.00 78 1013.7
20260831135005 25 192 8.0 12.9 0.00 0.84 0.00 77 1013.6
20260831133504 25 207 9.7 16.1 0.00 0.84 0.00 78 1013.5
20260831133005 25 216 8.0 11.3 0.00 0.84 0.00 79 1013.6
20260831132504 24 200 6.4 12.9 0.00 0.84 0.00 80 1013.6
20260831132004 24 207 6.4 12.9 0.00 0.84 0.00 80 1013.6
20260831131505 23 199 9.7 19.3 0.00 0.84 0.00 81 1013.6
20260831130005 23 209 8.0 16.1 0.00 0.84 0.00 82 1013.6
20260831125005 23 194 9.7 14.5 0.00 0.84 0.00 82 1013.5
20260831124504 23 195 8.0 14.5 0.00 0.84 0.00 83 1013.5
20260831123035 22 198 11.3 19.3 0.00 0.84 0.00 83 1013.5
20260831121504 22 206 8.0 16.1 0.00 0.84 0.00 84 1013.4
20260831121004 22 197 6.4 11.3 0.00 0.84 0.00 84 1013.3
20260831120504 22 209 6.4 11.3 0.00 0.84 0.00 84 1013.2
20260831115505 22 214 6.4 14.5 0.00 0.84 0.00 83 1013.2
20260831114504 22 189 11.3 19.3 0.00 0.84 0.00 83 1013.0
20260831114004 22 190 9.7 16.1 0.00 0.84 0.00 83 1013.0
20260831112505 22 195 9.7 19.3 0.00 0.84 0.00 82 1013.1
20260831111004 22 188 11.3 16.1 0.00 0.84 0.00 82 1013.1
20260831110504 22 184 8.0 19.3 0.00 0.84 0.00 82 1013.2
20260831105504 22 180 9.7 16.1 0.00 0.84 0.00 81 1013.3
20260831105004 22 195 11.3 16.1 0.00 0.84 0.00 81 1013.3
20260831104505 22 206 8.0 19.3 0.00 0.84 0.00 81 1013.4
20260831104005 22 192 9.7 14.5 0.00 0.84 0.00 81 1013.3
20260831102504 22 194 9.7 14.5 0.00 0.84 0.00 81 1013.4
20260831102004 22 184 9.7 16.1 0.00 0.84 0.00 82 1013.4
20260831101504 22 183 8.0 19.3 0.00 0.84 0.00 82 1013.5
20260831101004 22 193 6.4 14.5 0.00 0.84 0.00 82 1013.5
20260831100504 22 196 8.0 14.5 0.00 0.84 0.00 82 1013.4
20260831100004 22 182 9.7 16.1 0.00 0.84 0.00 82 1013.5
20260831095503 22 198 8.0 11.3 0.00 0.84 0.00 82 1013.4
20260831092504 22 186 9.7 19.3 0.00 0.84 0.00 82 1013.4
20260831085504 22 180 8.0 14.5 0.00 0.84 0.00 83 1013.6
20260831085005 22 177 8.0 19.3 0.00 0.84 0.00 83 1013.6
20260831084504 22 185 9.7 19.3 0.00 0.84 0.00 84 1013.6
20260831082504 21 161 4.8 9.7 0.00 0.84 0.00 85 1013.5
20260831082004 21 159 3.2 8.0 0.00 0.84 0.00 85 1013.5
20260831080004 22 175 8.0 11.3 0.00 0.84 0.00 85 1013.3
20260831075004 22 163 8.0 11.3 0.00 0.84 0.00 85 1013.3
20260831074504 22 165 6.4 9.7 0.00 0.84 0.00 85 1013.3
20260831074004 22 169 8.0 12.9 0.00 0.84 0.00 85 1013.3
20260831071004 22 158 8.0 12.9 0.00 0.84 0.00 86 1013.7
20260831065504 22 147 8.0 16.1 0.00 0.84 0.00 85 1013.8
20260831065004 22 144 9.7 14.5 0.00 0.84 0.00 85 1013.9
20260831064504 22 142 9.7 12.9 0.00 0.84 0.00 86 1013.9
20260831064003 22 135 8.0 12.9 0.00 0.84 0.00 86 1013.9
20260831063004 22 130 8.0 14.5 0.00 0.84 0.00 86 1014.1
20260831061504 22 139 11.3 16.1 0.00 0.84 0.00 86 1014.1
20260831061004 22 135 11.3 14.5 0.00 0.84 0.00 86 1014.2
20260831055504 22 137 8.0 12.9 0.00 0.84 0.00 87 1014.1
20260831054004 22 134 6.4 12.9 0.00 0.84 0.00 87 1014.1
20260831053004 22 140 9.7 14.5 0.00 0.84 0.00 88 1014.2
20260831052503 22 133 4.8 4.8 0.00 0.84 0.00 88 1014.1
20260831051504 22 146 6.4 11.3 0.00 0.84 0.00 88 1014.2
20260831051004 22 146 8.0 11.3 0.00 0.84 0.00 88 1014.1
20260831050504 23 133 9.7 14.5 0.00 0.84 0.00 88 1014.1
20260831050004 22 143 8.0 19.3 0.00 0.84 0.00 88 1014.2
20260831044504 22 145 8.0 12.9 0.00 0.84 0.84 89 1014.2
20260831043006 22 133 8.0 11.3 0.00 0.84 0.84 90 1014.2
20260831041006 22 143 8.0 14.5 0.00 0.84 0.84 90 1014.2
20260831040005 22 134 11.3 19.3 0.00 0.84 0.84 90 1014.2
20260831035506 22 132 11.3 16.1 0.00 0.84 0.84 90 1014.2
20260831035006 22 135 9.7 14.5 0.00 0.84 0.84 90 1014.4
20260831034505 22 134 11.3 19.3 0.00 0.84 0.84 91 1014.5
20260831034006 22 138 8.0 19.3 0.00 0.84 0.84 91 1014.5
20260831033505 22 123 12.9 16.1 0.00 0.84 0.84 91 1014.4
20260831032506 22 127 9.7 14.5 0.00 0.84 0.84 92 1014.7
20260831031505 22 127 9.7 14.5 0.00 0.84 0.84 92 1014.8
20260831031006 22 125 9.7 12.9 0.00 0.84 0.84 92 1014.8
20260831025505 22 119 4.8 9.7 0.00 0.84 0.84 92 1015.0
20260831024006 22 95 8.0 11.3 0.00 0.86 0.84 92 1014.9
20260831021505 22 103 8.0 9.7 0.00 0.89 0.84 90 1014.9
20260831021005 22 108 9.7 14.5 0.00 0.89 0.84 90 1014.8
20260831013505 22 90 9.7 12.9 0.00 0.89 0.84 90 1014.6
20260831013006 22 83 8.0 11.3 0.00 0.89 0.84 90 1014.7
20260831012505 22 87 8.0 9.7 0.00 0.89 0.84 89 1014.6
20260831012005 22 97 6.4 11.3 0.00 0.89 0.84 89 1014.7
20260831011506 23 107 3.2 4.8 0.00 0.89 0.84 88 1014.7
20260831011005 23 103 4.8 9.7 0.00 0.89 0.84 88 1014.6
20260831004006 23 112 11.3 19.3 0.00 0.89 0.84 87 1014.2
20260831003505 23 103 12.9 16.1 0.00 0.89 0.84 87 1014.2
20260831001006 23 105 11.3 19.3 0.00 0.89 0.84 87 1014.5
20260831000505 23 109 11.3 14.5 0.00 0.89 0.84 87 1014.7
20260830235505 23 95 9.7 16.1 0.00 0.89 0.84 87 1014.7
20260830235006 23 96 9.7 14.5 0.00 0.89 0.84 88 1014.6
20260830233005 23 89 4.8 9.7 0.00 0.89 0.84 89 1014.7
20260830232505 23 86 4.8 9.7 0.00 0.89 0.84 89 1014.6
20260830231505 23 92 3.2 4.8 0.00 0.89 0.84 89 1014.7
20260830230505 23 63 3.2 4.8 0.00 0.89 0.84 89 1014.9
20260830225505 23 117 1.6 3.2 0.00 0.89 0.84 88 1014.9
20260830224505 23 117 3.2 4.8 0.00 0.89 0.84 88 1014.7
20260830224005 23 163 1.6 3.2 0.00 0.89 0.84 88 1014.8
20260830223505 23 163 1.6 3.2 0.00 0.89 0.84 87 1014.9
20260830223005 23 163 1.6 3.2 0.00 0.89 0.84 87 1015.0
20260830222505 23 163 1.6 4.8 0.00 0.89 0.84 88 1015.0
20260830222005 23 147 3.2 4.8 0.00 0.89 0.84 88 1015.0
20260830221505 23 158 3.2 4.8 0.00 0.89 0.84 88 1014.9
20260830221006 23 152 1.6 3.2 0.00 0.89 0.84 88 1015.0
20260830215006 23 151 6.4 11.3 0.00 0.89 0.84 88 1014.8
20260830214005 22 154 6.4 11.3 0.03 0.89 0.84 91 1014.6
20260830213505 22 136 8.0 12.9 0.03 0.89 0.84 90 1014.5
20260830213006 22 143 11.3 14.5 0.05 0.89 0.84 91 1014.5
20260830212005 22 137 9.7 14.5 0.13 0.89 0.84 91 1014.6
20260830211005 22 122 8.0 16.1 0.30 0.89 0.84 91 1014.7
20260830210006 22 141 6.4 14.5 0.33 0.89 0.84 92 1014.9
20260830203505 21 147 19.3 29.0 0.46 0.86 0.81 92 1013.7
20260830202505 21 128 20.9 25.7 0.51 0.81 0.76 92 1014.1
20260830200505 21 145 11.3 19.3 0.30 0.58 0.53 92 1015.7
20260830200005 21 154 9.7 19.3 0.28 0.56 0.51 91 1016.0
20260830195005 21 141 11.3 16.1 0.20 0.48 0.43 91 1016.1